Wind_Speed
31 33 37 39 38 39 38 42 43 41 42 41 33 25 25 22 20 19 17 13 13 14 16 17 21 23 25 27 31 34 33 32 33 34 35 36 39 40 40 40 40 40 41
34 34 40 37 35 38 36 37 42 39 38 38 34 26 25 24 23 19 14 14 11 11 13 18 21 21 25 28 30 30 29 28 28 30 32 35 36 36 36 36 35 35 37
42 39 40 37 33 36 41 37 38 40 30 35 35 29 26 26 21 20 18 12 10 10 15 17 20 19 19 22 26 23 22 23 23 24 26 27 28 29 30 31 32 32 33
44 38 37 36 38 34 37 38 39 41 31 31 29 31 29 26 21 16 15 12 12 15 16 18 19 20 20 20 20 21 18 18 18 20 21 23 24 25 27 29 29 29 31
46 39 37 38 39 36 34 37 38 40 29 34 24 30 32 29 23 17 16 16 15 15 18 21 24 22 22 19 20 20 21 20 19 20 22 23 24 26 28 26 27 29 30
44 42 39 39 35 40 33 33 38 41 36 32 26 32 32 29 23 23 20 16 18 19 18 21 23 23 23 21 21 21 21 23 22 24 27 28 29 30 30 31 32 32 31
41 40 39 36 33 36 37 32 33 36 37 34 37 23 31 29 24 25 28 25 24 21 18 18 21 24 24 22 21 22 22 23 23 24 25 25 29 29 31 31 32 34 33
40 44 39 34 32 33 39 36 34 36 38 36 36 27 33 30 27 30 29 25 25 25 22 20 21 24 26 24 25 25 26 26 24 24 26 28 29 30 30 31 30 29 30
41 48 38 36 29 31 35 33 38 38 32 35 36 25 32 32 28 31 32 25 23 20 20 21 23 25 27 27 29 28 28 29 29 29 29 30 30 31 30 32 32 31 32
47 48 34 41 30 31 32 33 41 42 31 31 35 32 36 32 32 28 28 22 27 26 22 19 22 22 22 25 29 32 32 34 34 34 35 35 34 32 34 34 33 35 35
47 46 33 41 38 34 32 32 42 44 32 33 36 38 37 35 33 30 29 25 25 27 24 21 19 20 21 22 26 31 34 35 29 32 32 33 35 33 32 32 34 34 34
52 36 39 39 36 38 31 29 35 48 37 35 37 40 38 36 38 33 32 30 25 32 30 25 21 22 21 25 28 30 32 33 33 36 35 36 32 31 33 35 35 35 32
48 38 37 38 37 42 34 29 34 43 36 36 37 36 38 39 37 33 37 39 30 33 34 27 26 28 26 27 29 33 35 37 40 42 42 41 35 34 31 33 38 35 34
41 41 41 39 42 46 42 37 42 43 36 37 38 37 39 37 33 31 35 37 33 34 35 33 33 31 31 31 32 33 33 32 40 41 42 46 43 41 40 38 34 39 41
40 51 46 41 40 45 42 44 45 41 39 39 41 40 41 38 34 30 39 34 31 34 37 36 38 38 36 36 36 35 37 36 39 39 41 43 45 42 42 41 41 40 39
51 42 46 43 44 46 43 46 38 40 45 43 44 46 43 40 36 40 37 35 32 34 37 39 40 43 41 39 40 41 41 41 44 45 47 45 42 46 47 45 43 42 41
43 41 49 46 47 45 43 43 38 42 50 47 50 48 46 44 42 40 36 36 38 35 37 39 46 41 44 41 42 45 44 42 42 46 48 45 42 46 43 44 49 44 42
49 46 45 49 47 47 44 40 44 52 56 51 52 48 46 42 43 42 42 38 41 36 41 46 41 42 42 42 46 45 48 45 43 47 45 48 46 41 49 47 52 47 44
52 47 48 53 51 48 43 46 57 64 54 50 47 46 46 45 44 41 36 40 42 40 37 38 42 41 45 46 45 45 46 46 41 47 46 49 47 46 50 54 57 56 51
51 50 51 62 64 59 52 57 64 57 50 49 46 46 47 49 47 44 45 40 40 41 42 41 45 45 49 54 53 45 44 47 50 52 53 52 49 54 52 56 61 60 62
56 58 57 65 60 61 56 66 62 50 49 49 48 51 54 53 54 53 54 55 57 50 46 47 43 53 55 55 54 55 51 51 54 52 52 54 55 52 56 51 57 65 67
59 60 59 61 64 59 64 60 51 48 50 52 53 55 57 61 62 66 66 62 57 56 48 40 45 52 60 57 62 62 63 59 61 62 58 55 64 60 64 59 74 70 76
63 68 66 61 61 58 54 54 55 53 52 53 57 59 61 61 59 62 63 62 65 60 56 49 52 46 63 60 64 62 65 60 67 71 61 60 63 69 63 67 67 68 73
67 63 66 63 62 60 57 56 56 55 58 60 63 66 60 65 67 67 63 65 72 72 69 63 61 67 75 73 74 73 76 72 73 77 72 73 68 70 69 74 71 65 70
64 63 65 66 64 62 60 62 62 65 66 68 69 68 67 69 72 72 75 77 81 72 57 58 59 64 68 65 62 77 71 75 75 79 72 71 77 74 80 79 85 82 76
70 67 64 67 66 65 66 68 66 67 67 70 71 74 74 77 79 83 86 84 75 63 70 68 63 70 68 64 69 68 78 82 81 77 79 75 79 87 84 83 86 89 86
Wind_Direction
6 360 357 352 351 348 338 342 346 349 344 347 346 349 348 334 320 312 306 292 293 286 283 281 275 279 277 277 277 278 274 274 269 268 265 264 267 269 268 268 267 264 264
353 346 352 350 351 346 341 346 350 347 345 346 353 354 352 342 337 332 310 297 295 299 300 302 293 289 284 285 285 282 275 271 267 266 267 268 272 273 273 274 272 270 271
349 343 349 353 347 347 340 337 343 345 347 343 343 347 350 347 334 329 320 313 304 300 302 307 310 298 303 312 308 299 278 273 275 273 275 275 273 274 271 271 270 269 269
343 347 350 349 350 349 349 341 343 348 349 346 342 343 347 342 338 330 324 319 314 309 309 301 306 307 291 308 310 306 294 285 281 281 279 277 274 273 272 273 272 270 271
335 341 348 343 343 349 346 346 346 347 342 352 340 344 346 339 336 334 327 312 302 301 300 297 296 291 289 297 296 298 295 297 290 286 279 274 275 271 272 269 268 270 271
327 337 341 341 341 348 345 344 343 345 345 349 330 343 341 342 338 336 320 324 306 297 296 296 293 297 296 292 288 288 286 287 285 283 282 277 274 273 272 271 268 270 272
322 332 338 338 334 335 352 344 344 342 341 343 345 323 347 341 342 337 336 325 321 308 304 294 292 293 294 292 290 283 281 277 278 281 278 278 277 277 277 274 274 273 273
319 329 330 337 329 325 348 346 345 340 343 343 343 319 330 335 335 341 343 323 327 325 317 299 295 294 293 285 285 285 286 283 280 281 278 282 280 276 277 274 272 270 271
314 322 330 336 327 320 334 342 350 344 338 338 341 330 324 334 334 347 341 336 331 324 321 313 296 289 293 293 287 285 282 282 283 283 285 284 279 276 274 269 269 271 273
310 317 327 333 330 318 321 338 348 344 339 333 332 331 331 327 333 332 340 334 345 334 320 317 314 300 285 287 285 287 288 286 289 286 291 292 288 283 278 273 272 272 271
306 312 320 329 326 315 309 332 344 338 336 326 325 325 329 324 323 325 339 329 320 336 322 315 314 319 309 301 292 285 286 284 288 287 291 305 298 293 286 281 280 277 276
303 310 325 329 320 316 305 308 325 333 327 330 322 319 317 320 318 322 324 328 311 327 327 312 302 300 299 302 301 294 294 291 283 289 289 294 299 288 290 290 287 280 276
303 306 325 331 324 316 308 300 306 324 320 323 317 318 318 315 317 313 322 323 309 318 323 312 301 296 290 297 298 297 295 296 293 296 295 297 291 294 299 292 288 291 284
304 311 318 320 322 313 308 298 304 312 312 318 312 313 311 313 310 312 314 312 308 308 307 305 307 299 296 293 301 300 294 296 297 298 298 299 298 288 290 295 299 283 282
303 307 313 312 312 307 311 294 305 315 312 310 305 305 306 309 300 293 310 304 304 304 305 300 299 299 296 295 295 292 293 295 291 290 291 291 291 289 287 288 295 298 290
310 307 309 308 304 304 304 301 314 313 318 309 307 304 301 299 298 298 304 300 303 307 296 298 295 297 291 287 289 289 288 292 289 292 292 291 284 282 282 286 290 297 297
302 304 305 300 297 300 301 306 313 313 312 310 307 302 300 294 296 297 298 288 301 287 291 297 296 299 288 276 285 284 297 301 294 292 293 288 292 286 279 284 286 287 285
302 305 298 292 293 295 299 304 315 311 312 312 304 302 300 296 297 295 298 290 299 294 285 290 289 291 293 291 287 286 293 294 296 290 290 289 289 283 286 289 289 286 289
300 303 292 288 291 292 297 311 314 313 306 300 300 299 296 300 300 301 304 303 294 286 295 296 297 287 284 283 282 291 294 283 289 280 284 288 287 287 283 283 287 289 289
294 287 284 289 291 293 303 310 310 307 301 295 291 292 292 296 299 300 298 300 299 287 281 287 293 288 283 283 281 288 288 285 294 292 292 293 293 287 290 293 289 287 284
285 288 287 285 290 296 301 302 303 302 298 293 290 292 294 297 297 295 297 297 300 304 285 277 279 277 280 276 276 289 291 292 283 285 286 290 286 283 285 291 285 283 283
284 282 286 291 294 298 299 298 298 294 291 288 292 294 296 299 299 299 300 298 299 303 298 278 275 281 280 278 290 289 284 287 275 283 278 280 284 277 278 277 280 286 287
290 295 294 294 295 297 298 298 296 296 295 293 294 296 296 299 302 304 301 296 300 298 298 277 276 277 274 274 276 276 277 278 277 284 281 273 268 274 280 273 277 285 280
291 290 290 292 293 295 293 294 295 294 294 293 293 297 300 304 305 306 303 302 304 300 293 283 282 273 274 268 268 270 272 272 270 277 283 274 274 273 273 280 280 277 275
286 292 294 292 291 291 289 290 291 292 291 294 295 297 298 303 304 304 303 303 302 300 290 282 280 286 273 271 267 277 276 275 269 272 271 272 270 269 273 273 277 275 272
296 296 295 292 290 289 290 291 292 296 297 297 294 297 300 303 304 304 305 308 306 293 290 286 281 289 276 273 272 276 279 278 273 265 268 268 270 275 270 273 273 275 274
Height
10873 10869 10864 10860 10856 10853 10849 10845 10839 10833 10827 10823 10818 10813 10809 10806 10804 10801 10800 10799 10799 10800 10801 10801 10801 10801 10801 10801 10801 10800 10800 10801 10802 10803 10804 10805 10805 10806 10807 10808 10809 10809 10808
10873 10869 10864 10859 10854 10851 10847 10844 10839 10834 10828 10823 10819 10814 10811 10807 10803 10800 10798 10798 10798 10798 10799 10798 10798 10798 10798 10798 10796 10795 10796 10796 10797 10798 10799 10800 10801 10802 10802 10802 10802 10801 10802
10873 10868 10863 10858 10854 10850 10845 10841 10839 10833 10828 10821 10817 10815 10811 10807 10803 10800 10798 10796 10797 10797 10796 10796 10796 10795 10795 10794 10792 10791 10791 10792 10793 10794 10794 10795 10795 10796 10796 10796 10797 10796 10796
10871 10867 10863 10857 10853 10848 10843 10839 10835 10832 10828 10823 10819 10814 10811 10807 10803 10799 10797 10796 10795 10795 10794 10794 10793 10793 10792 10792 10790 10788 10788 10788 10789 10790 10790 10790 10791 10791 10791 10791 10792 10791 10791
10869 10865 10860 10856 10852 10846 10841 10836 10833 10829 10825 10822 10818 10815 10810 10806 10802 10799 10797 10794 10793 10792 10792 10791 10791 10789 10789 10788 10787 10786 10785 10786 10787 10787 10786 10787 10787 10787 10787 10786 10787 10787 10787
10867 10863 10858 10855 10850 10845 10839 10835 10830 10826 10824 10820 10818 10815 10810 10805 10801 10798 10795 10792 10790 10788 10787 10787 10787 10786 10785 10785 10784 10783 10783 10783 10783 10783 10783 10782 10782 10782 10782 10782 10782 10782 10782
10862 10859 10857 10853 10849 10843 10839 10832 10828 10825 10822 10818 10816 10812 10809 10806 10801 10797 10793 10790 10787 10786 10784 10784 10784 10784 10783 10782 10782 10782 10781 10780 10780 10781 10779 10778 10778 10777 10777 10776 10777 10777 10778
10858 10855 10853 10850 10846 10842 10837 10831 10826 10823 10820 10816 10813 10810 10808 10804 10800 10795 10791 10786 10784 10783 10782 10781 10780 10779 10779 10780 10779 10779 10778 10778 10777 10777 10777 10775 10774 10774 10773 10772 10772 10772 10772
10853 10851 10848 10845 10841 10838 10834 10828 10823 10820 10817 10813 10811 10807 10804 10801 10798 10793 10788 10785 10782 10780 10779 10777 10776 10775 10775 10775 10775 10774 10774 10773 10773 10772 10770 10770 10769 10768 10766 10765 10766 10766 10765
10846 10845 10843 10840 10835 10832 10830 10825 10821 10817 10814 10811 10807 10804 10801 10797 10794 10790 10787 10783 10780 10777 10775 10774 10772 10771 10770 10770 10769 10769 10769 10768 10769 10764 10766 10763 10762 10761 10759 10758 10759 10759 10758
10839 10839 10836 10834 10829 10825 10823 10820 10815 10813 10810 10807 10803 10800 10798 10794 10791 10788 10784 10781 10778 10776 10772 10769 10768 10767 10766 10765 10764 10763 10763 10762 10765 10758 10760 10757 10755 10754 10754 10752 10752 10751 10750
10832 10831 10829 10826 10822 10818 10815 10812 10809 10807 10804 10801 10798 10795 10792 10789 10786 10783 10780 10777 10774 10771 10769 10768 10766 10763 10762 10760 10759 10758 10757 10757 10756 10753 10753 10752 10750 10748 10748 10747 10745 10744 10743
10824 10823 10820 10819 10816 10811 10808 10806 10803 10801 10798 10795 10792 10790 10786 10783 10780 10776 10775 10772 10771 10767 10765 10763 10761 10759 10757 10756 10755 10753 10753 10753 10748 10749 10747 10746 10744 10743 10742 10741 10740 10738 10737
10817 10816 10813 10812 10809 10805 10802 10798 10797 10794 10792 10789 10785 10783 10780 10777 10774 10771 10768 10767 10765 10762 10759 10757 10755 10753 10752 10750 10748 10747 10747 10748 10742 10742 10741 10738 10737 10736 10734 10734 10733 10731 10731
10815 10809 10805 10803 10801 10798 10796 10791 10792 10787 10785 10782 10778 10776 10773 10771 10768 10766 10762 10761 10758 10756 10753 10751 10749 10748 10745 10743 10742 10740 10739 10741 10734 10736 10734 10732 10729 10727 10727 10726 10726 10723 10722
10805 10801 10797 10793 10792 10789 10788 10785 10784 10781 10778 10775 10771 10768 10766 10763 10762 10759 10758 10753 10751 10749 10747 10744 10742 10741 10738 10736 10735 10733 10731 10733 10728 10727 10726 10725 10722 10721 10719 10719 10717 10716 10714
10791 10799 10785 10784 10782 10781 10780 10777 10776 10772 10769 10766 10762 10759 10758 10756 10752 10751 10750 10746 10743 10739 10738 10736 10733 10733 10731 10728 10726 10724 10723 10722 10722 10717 10717 10715 10713 10710 10709 10708 10709 10708 10706
10781 10784 10780 10775 10773 10771 10771 10768 10767 10763 10760 10756 10753 10750 10748 10748 10745 10742 10740 10737 10735 10731 10729 10727 10724 10723 10722 10720 10716 10716 10715 10713 10715 10708 10707 10706 10704 10701 10699 10696 10697 10697 10696
10770 10771 10771 10763 10765 10762 10760 10759 10756 10754 10749 10747 10744 10740 10738 10738 10737 10733 10731 10727 10722 10720 10718 10716 10715 10713 10710 10711 10708 10705 10702 10701 10703 10697 10697 10696 10695 10690 10689 10688 10684 10684 10684
10759 10759 10763 10755 10754 10752 10748 10748 10748 10744 10740 10737 10735 10732 10728 10728 10728 10725 10723 10719 10714 10711 10707 10705 10703 10702 10699 10697 10696 10695 10692 10690 10691 10686 10685 10684 10683 10677 10677 10675 10673 10672 10669
10751 10749 10749 10745 10742 10741 10739 10738 10738 10735 10732 10727 10725 10724 10721 10718 10718 10716 10713 10708 10704 10702 10698 10694 10693 10689 10687 10683 10683 10680 10679 10676 10676 10676 10673 10672 10670 10667 10665 10662 10660 10657 10654
10738 10735 10736 10733 10730 10732 10729 10725 10724 10724 10721 10718 10716 10714 10712 10707 10705 10703 10700 10695 10692 10689 10687 10681 10680 10678 10677 10673 10670 10667 10665 10663 10661 10661 10659 10657 10656 10652 10650 10648 10648 10647 10641
10729 10725 10721 10724 10717 10718 10716 10712 10711 10711 10710 10708 10706 10703 10699 10695 10692 10689 10685 10681 10679 10675 10674 10669 10668 10664 10663 10656 10653 10652 10649 10649 10643 10643 10643 10641 10637 10634 10634 10630 10631 10633 10626
10716 10715 10708 10709 10707 10706 10704 10702 10699 10699 10697 10693 10690 10687 10683 10680 10677 10674 10671 10668 10663 10660 10657 10654 10650 10649 10644 10638 10637 10635 10633 10633 10627 10624 10624 10622 10618 10616 10614 10612 10609 10612 10612
10705 10704 10699 10694 10695 10693 10690 10689 10688 10684 10683 10680 10676 10672 10668 10663 10659 10656 10655 10651 10645 10640 10637 10634 10632 10629 10624 10619 10619 10619 10613 10609 10608 10606 10601 10597 10597 10595 10593 10591 10586 10588 10589
10689 10687 10687 10682 10680 10679 10676 10673 10672 10670 10666 10662 10659 10655 10651 10646 10642 10637 10633 10630 10625 10620 10617 10615 10612 10609 10604 10601 10600 10596 10590 10584 10584 10587 10583 10578 10574 10573 10570 10568 10567 10561 10566